RH
8 8 8 6 10 7 6 5 5 5 5 5 5 6 6 6 6 6 6 8 9 8 7 7 8 12 17 18 18 23 30 35 39 43 35 35 44 45 43 28 28 32 28 36 37 33 34 42 39
8 8 7 6 6 5 5 5 6 5 6 6 6 6 6 6 7 7 7 8 8 7 7 8 9 13 14 15 21 33 33 39 43 45 41 38 48 48 47 39 28 36 29 37 42 36 39 42 33
8 8 7 6 6 6 5 6 6 7 8 7 6 6 5 6 6 6 7 7 8 8 8 8 9 10 10 14 23 33 41 45 45 48 51 42 52 55 57 39 34 32 32 36 45 45 38 41 30
8 7 6 6 6 6 5 6 9 9 7 6 5 5 6 6 5 5 6 7 7 7 7 8 8 9 11 22 39 47 38 45 48 52 49 44 55 61 64 69 63 62 39 35 43 65 45 42 26
6 6 6 6 5 5 5 6 6 9 7 7 6 6 7 7 8 10 9 7 6 6 6 7 8 9 15 41 61 60 54 48 51 57 56 51 49 60 64 60 62 66 62 45 47 49 78 44 24
6 6 8 6 6 6 6 6 7 7 8 7 8 11 15 19 23 24 23 21 13 10 8 7 8 9 11 24 47 58 75 61 64 62 62 53 58 60 71 68 64 69 74 68 57 50 74 49 26
6 7 6 6 7 7 6 6 8 9 11 13 21 27 30 33 37 35 36 39 40 32 19 13 8 10 13 18 25 54 77 78 62 89 90 86 64 70 75 76 75 68 78 82 76 60 75 64 32
7 9 8 7 7 7 8 13 17 26 36 42 39 37 34 36 37 35 36 36 44 46 45 33 21 10 11 18 28 33 93 72 66 58 81 92 90 85 92 89 96 90 77 82 90 74 68 81 49
8 8 7 8 12 17 18 26 28 35 41 42 40 37 34 31 31 31 32 32 34 34 37 44 45 31 16 13 26 40 41 47 46 35 64 66 82 96 91 84 87 96 92 88 95 90 79 87 59
7 7 11 20 24 30 39 40 36 38 37 32 27 24 23 23 26 27 28 30 33 34 37 41 46 52 50 32 16 28 50 52 52 64 93 92 88 97 99 90 91 85 95 94 94 95 91 91 77
10 16 21 33 39 46 45 41 35 29 25 21 20 20 20 22 21 20 20 20 20 21 21 24 30 37 44 52 50 30 18 38 46 34 40 95 81 97 95 90 98 92 90 95 98 95 92 88 94
23 34 38 41 37 34 28 24 20 16 16 15 16 17 17 17 17 15 12 10 8 7 5 5 7 9 19 35 45 51 43 21 20 25 32 46 44 92 97 96 86 89 89 89 96 94 94 85 94
36 38 35 28 24 21 16 15 16 16 14 13 14 13 10 4 2 1 1 1 1 1 1 1 1 1 2 2 13 32 48 48 32 19 22 35 38 55 61 95 92 90 96 95 84 94 95 87 90
37 33 28 17 14 13 11 14 13 11 12 9 4 2 1 1 1 1 1 1 1 1 1 1 1 1 1 2 2 2 11 30 47 44 26 20 24 25 33 77 97 88 72 95 88 94 96 96 92
31 23 14 12 13 10 10 10 10 9 6 2 1 1 1 1 1 1 1 1 1 1 1 1 1 1 2 4 4 4 4 3 14 33 46 38 24 20 19 28 34 96 92 88 94 96 97 93 96
14 16 10 10 8 9 8 8 6 2 1 1 1 1 1 1 1 1 1 1 1 2 2 2 2 3 6 14 25 22 17 16 9 6 13 34 46 38 27 22 25 32 97 92 96 96 97 96 93
11 12 7 7 9 10 6 4 2 1 1 1 1 1 1 2 2 2 2 2 2 2 2 2 2 2 11 25 46 69 70 43 37 22 13 6 17 47 54 45 28 31 39 62 80 96 96 96 97
8 6 7 9 8 4 2 2 1 1 1 1 2 2 2 2 2 3 3 3 3 3 3 3 2 2 5 19 37 60 81 86 63 48 38 24 14 8 32 59 55 40 41 52 100 88 90 95 97
7 10 12 9 6 2 2 1 1 1 1 2 2 3 3 3 4 4 4 4 4 4 4 3 3 3 3 7 17 44 56 76 85 72 42 43 34 28 11 12 49 58 52 56 73 60 70 93 96
13 13 8 4 3 2 2 1 1 2 2 3 3 4 5 5 5 5 5 5 6 6 5 4 4 4 3 6 12 15 26 49 57 80 62 35 38 41 42 28 11 30 56 55 84 99 72 96 96
12 8 5 3 2 2 2 2 2 2 2 3 4 5 6 6 6 7 7 7 7 7 7 6 5 4 4 4 10 16 15 31 47 49 69 73 46 34 43 41 37 14 16 46 54 63 94 95 86
10 6 3 2 2 2 2 2 2 2 3 4 5 6 7 7 8 8 8 9 9 9 9 8 7 5 5 4 6 17 24 40 56 54 64 68 78 44 26 49 47 33 14 10 31 50 66 98 97
7 4 2 2 2 2 2 2 3 3 4 5 6 7 8 9 9 10 10 11 11 11 11 10 9 8 6 6 4 13 27 37 49 50 53 50 45 50 57 29 42 42 40 12 8 19 46 59 92
5 2 2 2 2 2 2 3 3 4 4 5 6 8 9 10 11 12 12 13 13 13 13 12 11 10 7 6 5 6 22 28 26 36 46 44 34 35 42 46 44 46 35 29 13 8 16 26 66
3 3 3 3 3 3 3 3 4 4 5 6 7 8 9 11 12 13 14 16 14 14 14 14 13 11 9 7 6 4 16 26 30 28 20 25 26 30 31 39 45 32 29 28 25 12 8 13 44
3 3 3 3 4 4 4 4 4 5 5 7 7 8 9 11 13 15 17 16 15 15 15 16 16 14 12 9 7 4 5 30 30 31 30 17 14 19 24 26 32 33 29 26 23 19 10 10 14
3 3 4 4 5 6 5 5 6 6 6 7 8 9 11 12 14 16 18 17 17 17 18 18 18 16 13 9 7 4 5 30 39 32 35 30 19 11 15 20 21 32 34 30 24 20 13 5 10
4 3 4 6 6 7 8 6 6 6 6 8 9 12 14 15 16 18 19 19 19 20 20 21 21 18 15 10 8 4 5 26 55 47 40 38 26 12 8 13 18 21 27 20 20 22 14 9 4
3 4 5 6 7 8 8 8 8 8 9 10 12 14 18 19 20 19 20 22 22 22 23 24 23 21 16 11 9 4 6 30 62 64 51 44 29 16 8 7 12 18 18 20 16 22 15 12 6
4 4 6 8 8 8 8 10 10 10 10 12 14 17 21 24 24 22 22 24 24 24 25 25 25 23 18 13 10 5 6 26 69 67 59 47 35 20 11 6 7 13 17 15 11 24 22 15 9
Wind_Speed
14 15 15 13 11 21 24 30 32 29 25 24 24 28 28 30 32 35 34 32 35 37 38 37 37 37 38 39 39 38 36 32 30 27 24 20 18 16 16 20 21 21 19 16 17 14 12 10 10
16 17 17 16 19 27 31 32 29 33 34 31 30 31 34 35 36 39 38 35 35 36 38 38 39 40 41 41 39 38 37 36 32 31 28 25 19 16 17 18 22 21 21 18 18 17 13 11 11
18 18 19 23 24 26 31 33 31 31 34 37 38 37 36 38 40 41 40 40 40 39 39 40 40 41 42 41 40 40 39 38 37 35 31 27 22 18 18 19 22 26 23 20 18 18 16 14 12
20 19 23 29 27 29 32 35 32 33 36 39 39 39 41 41 42 43 42 41 42 43 42 43 44 44 43 41 41 42 42 41 40 37 36 32 24 22 19 17 19 22 25 24 20 19 19 16 14
23 23 28 34 33 34 34 35 35 38 38 41 45 45 43 44 48 47 45 44 45 45 45 45 46 46 45 43 45 45 44 42 40 40 39 36 31 26 22 22 21 21 24 25 23 21 19 19 16
26 23 29 37 38 35 37 35 33 37 41 45 46 49 50 49 51 52 50 49 47 49 50 50 49 48 47 47 48 49 47 43 43 43 41 39 36 31 27 25 23 22 23 27 26 24 21 21 19
27 30 34 38 39 36 35 36 36 38 43 47 51 53 53 51 52 54 53 52 50 50 51 53 52 52 51 49 50 49 49 47 43 43 44 42 40 38 32 29 27 25 26 28 27 24 26 23 22
29 30 34 35 38 40 40 39 42 45 45 46 49 52 54 55 56 55 55 55 53 53 51 53 54 54 55 54 53 52 52 51 48 48 47 43 47 43 37 34 30 29 30 34 30 28 33 24 25
30 30 31 33 38 41 44 44 45 45 46 47 49 52 55 54 54 55 56 55 55 56 55 54 54 55 56 57 57 57 56 57 55 54 53 51 48 47 43 33 35 36 33 35 33 30 34 25 27
30 30 32 34 39 43 43 44 48 47 47 47 48 47 47 47 49 51 51 50 52 53 54 54 55 56 56 58 60 60 60 61 58 59 59 54 50 50 44 40 35 39 40 38 37 33 39 25 29
32 34 37 38 36 33 37 41 43 44 45 46 45 45 46 46 48 50 52 52 53 53 53 52 52 53 55 58 59 61 63 64 65 61 66 47 56 50 50 43 40 41 42 41 39 37 37 31 31
36 36 35 33 32 33 33 34 35 38 41 44 43 44 44 45 47 49 51 52 54 56 56 57 58 56 56 55 57 61 62 64 66 68 65 63 67 50 50 48 47 45 46 44 44 41 39 42 33
33 31 29 27 28 30 31 31 32 34 37 41 42 42 43 43 46 48 50 52 53 55 57 59 60 61 62 62 60 60 61 63 65 68 70 69 67 66 61 61 47 50 48 47 46 48 47 44 40
26 27 25 22 25 25 30 29 32 34 35 36 37 39 41 42 44 46 47 48 49 51 54 55 57 58 58 59 61 63 63 62 62 66 68 70 70 69 67 61 53 53 55 53 54 53 53 53 48
23 22 19 20 23 28 28 26 29 32 33 33 35 37 38 38 39 40 40 41 40 43 45 47 50 52 52 51 51 53 57 60 64 64 65 69 70 70 69 67 64 60 56 59 58 51 60 53 60
20 22 17 20 25 26 28 30 30 30 31 31 32 32 33 34 34 36 38 40 42 45 47 48 47 46 45 46 45 44 44 49 53 61 65 66 69 71 71 69 67 67 56 67 53 53 37 54 55
20 25 21 21 22 24 25 26 28 29 27 27 29 31 32 34 34 36 39 43 45 47 50 53 52 47 41 38 37 38 39 40 43 46 54 64 67 69 73 73 70 69 72 71 68 61 44 49 52
20 23 22 24 23 20 24 25 25 23 24 27 31 32 34 35 37 39 41 43 45 47 50 53 55 50 45 44 40 38 38 38 37 38 40 48 58 66 70 72 74 72 71 69 67 64 57 50 50
20 20 19 21 23 23 21 22 19 21 25 28 30 32 35 37 39 42 44 46 48 50 52 54 55 52 44 42 42 42 41 40 38 37 31 35 40 47 63 70 70 73 74 72 67 61 62 54 52
17 17 18 17 19 20 21 18 19 20 22 24 29 34 37 39 41 44 46 48 49 51 52 52 54 53 45 41 39 41 42 42 41 38 38 32 31 33 31 43 65 69 71 74 71 61 63 54 43
15 15 14 16 17 17 17 17 19 20 24 28 32 36 38 40 42 43 45 46 49 50 52 53 55 55 52 45 38 38 38 42 42 41 38 38 34 28 29 29 29 55 70 70 73 71 68 65 59
15 14 14 15 15 17 18 15 17 22 26 30 33 35 37 39 41 44 45 47 49 51 53 54 55 56 56 52 42 38 34 34 38 39 39 39 38 37 31 28 23 26 49 71 70 69 75 72 57
13 13 13 14 17 17 15 15 17 21 25 27 29 33 36 39 41 44 46 48 50 49 51 53 55 57 57 57 47 38 32 33 33 36 36 37 35 35 37 32 28 25 26 51 68 68 69 72 71
11 11 12 13 14 13 13 14 17 21 21 24 28 32 35 39 42 44 47 49 49 50 50 52 54 56 58 59 54 39 34 33 31 32 34 33 34 32 33 33 34 30 28 30 49 65 69 67 72
11 13 13 13 13 13 14 14 15 17 20 24 28 31 35 39 42 45 47 47 49 50 50 51 53 56 59 61 60 43 35 31 31 30 30 32 31 34 31 32 30 31 29 29 35 49 66 68 69
13 11 12 13 15 14 14 15 17 19 21 25 28 32 35 38 41 44 45 47 50 52 53 53 55 58 61 63 63 50 35 30 27 28 29 28 29 31 33 32 31 32 31 32 30 41 49 69 70
10 10 11 13 14 15 15 16 18 21 23 26 29 32 35 37 40 42 44 49 51 53 54 55 57 60 61 65 65 56 35 28 24 23 25 26 26 27 29 30 30 30 31 31 29 38 43 56 71
9 10 10 13 14 15 18 19 20 22 24 26 29 32 34 37 40 41 44 49 52 53 55 56 57 60 62 66 65 58 37 24 22 21 20 22 23 23 24 27 30 30 29 30 31 35 45 46 62
9 10 11 13 16 17 18 21 23 24 25 27 30 32 35 38 39 41 47 49 50 53 55 56 57 60 61 65 66 58 38 24 20 18 18 19 20 21 21 23 27 31 26 29 29 32 45 47 51
10 9 11 13 14 17 18 19 22 24 26 27 29 31 34 37 39 43 46 47 50 53 55 56 57 59 62 65 67 60 41 25 21 18 16 16 18 19 18 20 24 28 32 26 27 29 44 49 50
Wind_Direction
310 317 327 320 270 286 292 310 325 331 327 326 323 313 304 298 296 294 292 286 289 290 290 290 288 287 285 284 288 289 292 291 293 294 297 296 292 294 296 291 299 309 295 292 279 266 259 260 258
308 314 313 294 282 293 306 311 320 324 322 318 307 300 297 295 293 291 291 289 286 283 282 282 281 278 278 280 280 283 285 287 288 288 289 289 286 287 294 292 289 302 289 287 279 269 257 250 248
306 306 307 287 285 294 300 307 319 318 309 304 303 303 299 297 296 295 294 291 287 286 284 281 277 276 277 278 278 279 281 283 285 285 283 284 282 281 278 278 283 284 289 272 280 269 257 248 241
299 306 294 287 294 300 304 314 312 305 301 301 300 298 298 297 293 290 290 290 289 288 286 284 283 280 278 276 273 275 278 278 283 279 279 278 269 272 273 272 268 282 273 270 271 271 256 248 237
299 300 296 292 300 305 312 310 310 303 302 299 298 299 296 294 291 290 290 290 288 286 284 281 278 276 274 269 268 268 272 273 274 275 277 278 276 269 269 264 270 276 264 267 257 270 254 245 235
297 299 285 296 301 305 306 306 304 300 300 298 296 293 293 292 291 291 290 288 286 285 284 282 280 277 272 267 264 266 266 267 266 271 271 274 273 270 268 264 265 265 261 260 254 259 276 244 238
297 292 293 298 301 301 299 300 296 291 287 288 291 292 292 292 291 290 289 288 286 282 281 280 278 277 275 271 266 264 264 263 266 261 261 263 270 269 263 262 259 262 263 259 249 251 272 242 241
293 294 297 297 297 298 298 298 296 290 292 293 293 294 294 295 294 292 291 289 287 284 281 280 278 276 275 273 270 268 262 264 260 262 260 257 265 266 263 258 261 255 258 251 251 243 259 233 241
294 292 291 294 295 296 297 293 292 292 292 295 295 295 295 296 295 295 293 293 291 289 286 280 276 274 272 270 267 266 265 262 260 262 257 258 257 255 260 256 262 262 250 254 257 230 249 242 233
292 289 290 291 292 292 295 292 290 291 293 293 292 291 291 292 293 294 294 292 290 289 287 285 282 277 272 269 267 264 263 262 260 263 250 258 255 249 252 256 251 260 261 253 245 233 245 246 226
294 293 293 291 289 288 288 291 292 296 297 296 295 296 298 300 298 297 295 294 293 291 289 285 281 277 274 270 265 262 260 258 260 257 259 246 261 248 244 248 250 254 258 261 249 253 237 243 225
296 294 291 291 292 290 289 291 292 295 295 298 302 302 301 300 299 299 297 295 293 290 287 285 281 277 272 268 264 262 258 256 256 258 257 256 257 251 234 245 248 250 254 256 257 254 246 234 227
291 292 293 298 298 296 297 298 302 298 301 301 302 305 306 305 302 301 299 297 295 293 291 288 284 279 276 271 266 263 258 255 253 253 254 252 251 254 253 249 242 252 248 255 258 258 252 238 236
288 289 298 304 300 299 305 312 303 307 308 309 309 309 310 310 310 310 310 309 308 305 301 297 292 289 283 275 269 264 261 258 253 249 249 251 250 249 250 248 241 245 253 252 256 256 253 254 236
296 305 310 308 302 306 306 311 310 311 313 316 318 320 321 320 319 317 318 318 322 322 320 314 307 300 295 288 279 268 263 255 254 252 248 246 247 248 247 247 245 245 245 249 251 253 244 246 242
309 306 316 300 306 315 318 318 321 323 326 328 328 327 328 328 331 334 338 340 341 345 343 335 323 312 304 297 295 288 273 266 253 249 249 246 243 243 245 244 242 241 234 242 230 234 253 235 243
308 305 314 317 323 322 325 327 328 331 330 331 334 337 341 344 347 351 353 354 352 351 350 346 334 319 305 298 295 291 292 283 278 259 250 246 244 241 241 241 239 239 238 240 242 252 237 219 236
315 321 323 322 329 333 332 334 331 331 334 339 345 350 353 353 353 353 355 355 356 354 353 353 346 331 309 298 290 289 290 289 285 282 274 254 247 242 240 239 238 237 238 240 241 243 237 231 229
318 325 324 329 333 334 334 330 331 336 341 353 356 359 357 354 353 353 353 354 354 352 352 353 354 346 322 303 291 285 284 283 283 279 276 275 265 253 245 240 237 237 237 237 242 242 242 249 247
319 327 328 327 328 329 330 327 333 342 356 0 2 3 360 358 355 354 352 351 351 351 353 354 355 354 335 315 302 291 280 279 276 278 273 270 271 266 257 253 242 235 235 236 232 238 241 233 236
321 324 322 327 329 334 320 326 338 348 358 2 5 2 358 356 354 353 351 349 348 349 352 355 356 356 348 330 310 306 288 277 274 277 277 274 270 265 261 255 255 245 234 235 232 229 233 231 238
318 320 329 333 333 326 332 338 350 359 4 5 2 357 355 354 352 351 350 349 348 349 351 354 355 354 352 343 322 307 305 285 275 269 270 272 271 267 263 257 251 249 246 235 234 228 232 228 227
317 329 331 335 334 333 329 342 1 1 1 1 355 354 352 352 351 350 349 349 350 349 350 352 353 353 351 348 334 313 301 289 283 276 274 271 274 268 263 256 245 247 244 243 236 233 227 229 227
326 328 337 332 325 325 335 350 349 354 354 352 351 352 350 351 351 351 349 351 349 348 350 352 352 352 351 349 343 322 301 290 283 278 276 274 270 269 265 261 252 245 240 236 242 237 230 228 226
331 333 328 316 325 334 330 330 341 345 344 347 348 347 348 350 351 350 351 349 349 349 351 351 352 352 352 349 345 332 305 295 284 276 274 272 267 265 264 262 260 239 234 235 238 240 235 227 226
320 315 307 322 332 335 334 334 335 337 340 344 343 344 347 349 348 349 351 348 350 352 352 352 353 353 352 349 347 337 315 300 287 279 272 270 269 264 262 261 259 249 237 231 236 233 236 229 223
304 304 315 327 331 332 333 329 331 334 336 340 342 344 347 348 347 349 348 349 353 354 354 354 353 353 352 350 347 340 325 308 299 287 275 269 269 263 260 256 256 250 244 239 237 230 228 232 224
298 306 316 327 327 329 329 329 329 331 336 338 342 347 348 345 349 345 348 354 356 355 355 354 353 353 352 351 348 344 332 316 310 297 280 272 269 264 261 256 254 254 248 241 238 235 223 225 228
295 306 317 320 325 329 332 332 332 337 339 341 344 347 346 347 345 345 352 356 356 356 356 356 353 353 352 352 350 347 338 325 320 308 292 278 274 268 261 253 251 252 251 243 244 241 221 216 224
294 304 314 323 330 331 334 337 336 337 338 341 342 344 346 348 343 350 354 356 357 357 357 356 354 353 353 353 353 350 345 333 327 319 305 291 287 276 266 257 246 245 249 248 246 243 225 216 215